User: anonymous   Login
Location: La Pernelle
(49.6188°N, 1.2999°W)
Time: 08:12:54
(UTC+00:00)
Language:

Cosmos 676 Rocket - Orbit

View from above orbital plane
View from above orbital plane
View from above satellite
View from above satellite

Ground track
Ground track

The orbit data is extracted from the following two-line orbital elements,

1 07434U 74071B   21263.90522433 -.00000037  00000-0 -36400-5 0  9999
2 07434  74.0443 234.8488 0019575 122.9240 237.3799 14.36777492459969
Epoch (UTC): 20 September 2021 21:43:31
Eccentricity: 0.0019575
inclination: 74.0443°
perigee height: 755 km
apogee height: 783 km
right ascension of ascending node: 234.8488°
argument of perigee: 122.9240°
revolutions per day: 14.36777492
mean anomaly at epoch: 237.3799°
orbit number at epoch: 45996

The dashed part of the orbit path shows where the satellite is in the earth's shadow,  

DLR